Location: Oakhurst
(33.6448°N, 111.9543°W)
Time: 04:31:05
(UTC+00:00)

DUCHIFAT 1 - Pass Details

Date: 03 August 2021
Orbit: 585 x 602 km, 98.0° (Epoch: 24 September)

Event Time Altitude Azimuth Distance (km) Brightness Sun altitude
Rises 09:19:23 0° 11° (NNE) 2,846 ? -33.1°
Reaches altitude 10° 09:21:33 10° 11° (NNE) 1,943 ? -32.9°
Enters shadow 09:23:15 24° 11° (N) 1,261 ? -32.7°
